Regional Weather Roundup
Issued by NWS

Home | Current Version | Previous Version | Graphics & Text | Print | Product List | Glossary On
Versions: 1 2 3 4 5 6 7 8 9 10 11 12 13 14 15 16 17 18 19 20 21 22 23 24 25 26 27 28 29 30 31 32 33 34 35 36 37 38 39 40 41 42 43 44 45 46 47 48 49 50
000
ASUS43 KLSX 211107
RWRMO

WEATHER SUMMARY FOR MISSOURI
NATIONAL WEATHER SERVICE SPRINGFIELD MO
600 AM CDT MON APR 21 2014

NOTE: "FAIR" INDICATES FEW OR NO CLOUDS BELOW 12,000 FEET WITH NO
       SIGNIFICANT WEATHER AND/OR OBSTRUCTIONS TO VISIBILITY.
       CURRENT SKY AND/OR WEATHER CONDITIONS ARE NOT AVAILABLE FOR
       CHILLICOTHE AND FARMINGTON.

MOZ001>031-035>038-043-044-053-054-211200-
...NORTHERN AND WESTERN MISSOURI...

CITY           SKY/WX    TMP DP  RH WIND       PRES   REMARKS
KANSAS CTY INT CLOUDY    62  55  77 SW9       29.98S
KANSAS C DTWN  CLOUDY    66  55  67 S7        29.97S
LEE`S SUMMIT   CLOUDY    63  55  75 SW9       29.99S
ST JOSEPH      CLOUDY    61  57  87 SE3       29.97S
CHILLICOTHE      N/A     62  58  86 VRB5      29.99S
KIRKSVILLE     CLOUDY    63  53  70 SW6       29.98S

$$
MOZ066>068-077>081-088>096-101>105-211200-
...SOUTHWEST MISSOURI...

CITY           SKY/WX    TMP DP  RH WIND       PRES   REMARKS
SPRINGFIELD    LGT RAIN  60  58  92 SE5       30.04S
JOPLIN         CLOUDY    60  59  96 SE5       30.02F FOG

$$
MOZ032>034-039>042-045>050-055>058-069>072-211200-
...CENTRAL MISSOURI...

CITY           SKY/WX    TMP DP  RH WIND       PRES   REMARKS
COLUMBIA       CLOUDY    63  50  62 S5        30.00F
JEFFERSON CITY CLOUDY    59  52  77 E3        30.00F
ROLLA          LGT RAIN  59  52  77 S9        30.02S
SEDALIA        LGT RAIN  62  55  77 SW8       30.02S
WHITEMAN AFB   CLOUDY    59  54  82 SW7       30.01S
OSAGE BEACH    CLOUDY    61  52  72 W6        30.05S

$$
MOZ051-052-059>065-211200-
...EAST CENTRAL MISSOURI...

CITY           SKY/WX    TMP DP  RH WIND       PRES   REMARKS
ST LOUIS INTL  MOCLDY    63  46  54 CALM      30.01F
SPIRIT OF STL  MOCLDY    58  49  72 CALM      30.00F
ST CHARLES     PTCLDY    56  50  80 CALM      30.00S

$$
MOZ072>076-082>087-097>100-106>115-211200-
...SOUTH CENTRAL AND SOUTHEAST MISSOURI...

CITY           SKY/WX    TMP DP  RH WIND       PRES   REMARKS
CAPE GIRARDEAU CLOUDY    57  50  77 E3        30.05S
FARMINGTON     CLOUDY    61  48  63 W8        30.06F
POPLAR BLUFF   CLOUDY    59  53  80 CALM      30.04S
WEST PLAINS    LGT RAIN  60  55  83 CALM      30.07F

$$



USA.gov is the U.S. government's official web portal to all federal, state and local government web resources and services.